Weather History for Alva, OK

Change the Weather History Date:

Friday, January 17, 2014

  Actual Average Record
Temperature  
Mean Temperature 34 °F -  
Max Temperature 50 °F 45 °F 70 °F (1951)
Min Temperature 19 °F 24 °F -4 °F (1978)
Degree Days  
Heating Degree Days 30    
Moisture  
Dew Point 12 °F    
Average Humidity 40    
Maximum Humidity 68    
Minimum Humidity 19    
Precipitation  
Precipitation 0.00 in - - ()
Sea Level Pressure  
Sea Level Pressure 30.20 in    
Wind  
Wind Speed 10 mph (West)    
Max Wind Speed 17 mph    
Max Gust Speed 22 mph    
Visibility 10 miles    
Events      
Averages and records for this station are not official NWS values.
T = Trace of Precipitation, MM = Missing Value Source: NWS Daily Summary

Daily Weather History Graph

Daily Weather History Graph

Search for Another Location

Airport:

Trip Planner

Search our weather history database for the weather conditions in past years. The results will help you decide how hot, cold, wet, or windy it might be!

Date:

Astronomy

Jan. 17, 2014 Rise Set
Actual Time 7:45 AM CST 5:44 PM CST
Civil Twilight 7:17 AM CST 6:12 PM CST
Nautical Twilight 6:45 AM CST 6:44 PM CST
Astronomical Twilight 6:14 AM CST 7:15 PM CST
Moon 7:28 PM CST (1/17) 8:17 AM CST (1/17)
Length of Visible Light 10h 54m
Length of Day
9h 58m
Full, 98% of the Moon is Illuminated
Jan 17
Full
Jan 23
Last Quarter
Jan 30
New
Feb 6
First Quarter
Feb 14
Full

Hourly Weather History & Observations

Time (CST) Temp. Windchill Dew Point Humidity Pressure Visibility Wind Dir Wind Speed Gust Speed Precip Events Conditions
12:10 AM 35.6 °F 28.6 °F 12.2 °F 38% 30.27 in 10.0 mi NNW 9.2 mph - N/A   Partly Cloudy
12:30 AM 35.6 °F 28.0 °F 12.2 °F 38% 30.27 in 10.0 mi NNW 10.4 mph 17.3 mph N/A   Clear
12:50 AM 33.8 °F 25.3 °F 12.2 °F 41% 30.27 in 10.0 mi NNW 11.5 mph - N/A   Clear
1:10 AM 32.0 °F 24.2 °F 12.2 °F 44% 30.28 in 10.0 mi NW 9.2 mph - N/A   Clear
1:30 AM 32.0 °F 24.8 °F 10.4 °F 41% 30.28 in 10.0 mi WNW 8.1 mph - N/A   Clear
1:50 AM 32.0 °F 23.0 °F 10.4 °F 41% 30.28 in 10.0 mi NNW 11.5 mph - N/A   Clear
2:10 AM 30.2 °F 21.3 °F 10.4 °F 44% 30.29 in 10.0 mi NW 10.4 mph - N/A   Clear
2:30 AM 28.4 °F 20.4 °F 10.4 °F 47% 30.29 in 10.0 mi NW 8.1 mph - N/A   Clear
2:50 AM 26.6 °F 18.2 °F 10.4 °F 51% 30.29 in 10.0 mi WNW 8.1 mph - N/A   Clear
3:10 AM 26.6 °F 17.5 °F 10.4 °F 51% 30.29 in 10.0 mi NW 9.2 mph - N/A   Clear
3:30 AM 26.6 °F 19.1 °F 10.4 °F 51% 30.28 in 10.0 mi NW 6.9 mph - N/A   Clear
3:50 AM 23.0 °F 14.7 °F 10.4 °F 59% 30.28 in 10.0 mi WNW 6.9 mph - N/A   Clear
4:10 AM 23.0 °F 17.0 °F 10.4 °F 59% 30.28 in 10.0 mi WNW 4.6 mph - N/A   Clear
4:30 AM 23.0 °F 13.9 °F 8.6 °F 54% 30.28 in 10.0 mi WNW 8.1 mph - N/A   Clear
4:50 AM 23.0 °F 13.1 °F 10.4 °F 59% 30.28 in 10.0 mi WNW 9.2 mph - N/A   Clear
5:10 AM 23.0 °F 13.1 °F 10.4 °F 59% 30.29 in 10.0 mi West 9.2 mph - N/A   Partly Cloudy
5:30 AM 23.0 °F 13.1 °F 10.4 °F 59% 30.29 in 10.0 mi WNW 9.2 mph - N/A   Scattered Clouds
5:50 AM 23.0 °F 14.7 °F 10.4 °F 59% 30.29 in 10.0 mi West 6.9 mph - N/A   Scattered Clouds
6:10 AM 23.0 °F 13.1 °F 10.4 °F 59% 30.29 in 10.0 mi WNW 9.2 mph - N/A   Mostly Cloudy
6:30 AM 23.0 °F 12.4 °F 10.4 °F 59% 30.29 in 10.0 mi WNW 10.4 mph - N/A   Mostly Cloudy
6:50 AM 21.2 °F 12.6 °F 10.4 °F 63% 30.29 in 10.0 mi West 6.9 mph - N/A   Scattered Clouds
7:10 AM 19.4 °F 9.5 °F 10.4 °F 68% 30.30 in 10.0 mi West 8.1 mph - N/A   Mostly Cloudy
7:30 AM 19.4 °F 10.4 °F 10.4 °F 68% 30.30 in 10.0 mi West 6.9 mph - N/A   Scattered Clouds
7:50 AM 19.4 °F 11.5 °F 10.4 °F 68% 30.30 in 9.0 mi West 5.8 mph - N/A   Clear
8:10 AM 19.4 °F 11.5 °F 10.4 °F 68% 30.30 in 10.0 mi WNW 5.8 mph - N/A   Clear
8:30 AM 23.0 °F 14.7 °F 14.0 °F 68% 30.30 in 10.0 mi NW 6.9 mph - N/A   Clear
8:50 AM 28.4 °F 21.2 °F 15.8 °F 59% 30.29 in 10.0 mi NW 6.9 mph - N/A   Clear
9:10 AM 32.0 °F 23.0 °F 15.8 °F 51% 30.30 in 10.0 mi WNW 11.5 mph 16.1 mph N/A   Clear
9:30 AM 32.0 °F 23.6 °F 15.8 °F 51% 30.30 in 10.0 mi West 10.4 mph - N/A   Clear
9:50 AM 33.8 °F 24.3 °F 14.0 °F 44% 30.30 in 10.0 mi WNW 13.8 mph - N/A   Clear
10:10 AM 37.4 °F 28.2 °F 14.0 °F 38% 30.31 in 10.0 mi NW 16.1 mph - N/A   Clear
10:30 AM 39.2 °F 30.8 °F 14.0 °F 36% 30.31 in 10.0 mi NNW 15.0 mph 19.6 mph N/A   Clear
10:50 AM 41.0 °F 32.5 °F 14.0 °F 33% 30.30 in 10.0 mi NW 17.3 mph 21.9 mph N/A   Clear
11:10 AM 41.0 °F 32.8 °F 12.2 °F 31% 30.29 in 10.0 mi NW 16.1 mph 21.9 mph N/A   Clear
11:30 AM 42.8 °F 35.8 °F 10.4 °F 27% 30.28 in 10.0 mi NW 13.8 mph 21.9 mph N/A   Clear
11:50 AM 44.6 °F 37.8 °F 8.6 °F 23% 30.27 in 10.0 mi NNW 15.0 mph - N/A   Clear
12:10 PM 44.6 °F 38.4 °F 6.8 °F 21% 30.25 in 10.0 mi NW 12.7 mph 21.9 mph N/A   Clear
12:30 PM 46.4 °F 39.8 °F 8.6 °F 22% 30.23 in 10.0 mi NW 16.1 mph 21.9 mph N/A   Clear
12:50 PM 46.4 °F 40.7 °F 6.8 °F 20% 30.22 in 10.0 mi NW 12.7 mph 19.6 mph N/A   Clear
1:10 PM 46.4 °F 41.9 °F 6.8 °F 20% 30.20 in 10.0 mi NW 9.2 mph - N/A   Clear
1:30 PM 48.2 °F - 6.8 °F 19% 30.19 in 10.0 mi NW 9.2 mph 16.1 mph N/A   Clear
1:50 PM 48.2 °F - 6.8 °F 19% 30.18 in 10.0 mi West 5.8 mph - N/A   Clear
2:10 PM 48.2 °F - 8.6 °F 20% 30.17 in 10.0 mi NW 8.1 mph - N/A   Clear
2:30 PM 50.0 °F - 8.6 °F 19% 30.16 in 10.0 mi NW 4.6 mph - N/A   Clear
2:50 PM 50.0 °F - 10.4 °F 20% 30.16 in 10.0 mi NW 6.9 mph - N/A   Clear
3:10 PM 50.0 °F - 14.0 °F 24% 30.15 in 10.0 mi NW 5.8 mph 16.1 mph N/A   Clear
3:30 PM 50.0 °F - 14.0 °F 24% 30.14 in 10.0 mi WSW 8.1 mph - N/A   Clear
3:50 PM 50.0 °F - 14.0 °F 24% 30.13 in 10.0 mi WSW 11.5 mph - N/A   Clear
4:10 PM 50.0 °F - 15.8 °F 26% 30.14 in 10.0 mi WSW 10.4 mph - N/A   Clear
4:30 PM 50.0 °F - 15.8 °F 26% 30.13 in 10.0 mi WSW 9.2 mph - N/A   Clear
4:50 PM 50.0 °F - 15.8 °F 26% 30.13 in 10.0 mi WSW 6.9 mph - N/A   Clear
5:10 PM 48.2 °F - 15.8 °F 27% 30.12 in 10.0 mi SW 5.8 mph - N/A   Scattered Clouds
5:30 PM 46.4 °F 42.9 °F 17.6 °F 32% 30.12 in 10.0 mi South 6.9 mph - N/A   Mostly Cloudy
5:50 PM 44.6 °F 41.4 °F 15.8 °F 31% 30.11 in 10.0 mi SSE 5.8 mph - N/A   Mostly Cloudy
6:10 PM 42.8 °F 39.3 °F 15.8 °F 34% 30.11 in 10.0 mi SE 5.8 mph - N/A   Overcast
6:30 PM 42.8 °F 37.0 °F 15.8 °F 34% 30.10 in 10.0 mi SSE 10.4 mph - N/A   Overcast
6:50 PM 41.0 °F 34.7 °F 15.8 °F 36% 30.10 in 10.0 mi SE 10.4 mph - N/A   Overcast
7:10 PM 41.0 °F 34.3 °F 15.8 °F 36% 30.09 in 10.0 mi SSE 11.5 mph - N/A   Overcast
7:30 PM 39.2 °F 32.0 °F 15.8 °F 39% 30.09 in 10.0 mi South 11.5 mph - N/A   Mostly Cloudy
7:50 PM 39.2 °F 31.6 °F 14.0 °F 36% 30.08 in 10.0 mi South 12.7 mph - N/A   Mostly Cloudy
8:10 PM 39.2 °F 31.6 °F 12.2 °F 33% 30.07 in 10.0 mi South 12.7 mph - N/A   Partly Cloudy
8:30 PM 39.2 °F 31.6 °F 12.2 °F 33% 30.06 in 10.0 mi South 12.7 mph - N/A   Scattered Clouds
8:50 PM 39.2 °F 31.2 °F 12.2 °F 33% 30.06 in 10.0 mi South 13.8 mph - N/A   Scattered Clouds
9:10 PM 37.4 °F 30.3 °F 14.0 °F 38% 30.05 in 10.0 mi South 10.4 mph - N/A   Scattered Clouds
9:30 PM 35.6 °F 27.5 °F 14.0 °F 41% 30.05 in 10.0 mi SSW 11.5 mph - N/A   Scattered Clouds
9:50 PM 35.6 °F 28.0 °F 14.0 °F 41% 30.05 in 10.0 mi South 10.4 mph - N/A   Scattered Clouds
10:10 PM 35.6 °F 28.0 °F 14.0 °F 41% 30.04 in 10.0 mi SSW 10.4 mph - N/A   Partly Cloudy
10:30 PM 39.2 °F 32.0 °F 15.8 °F 39% 30.03 in 10.0 mi SSW 11.5 mph - N/A   Clear
10:50 PM 39.2 °F 31.6 °F 15.8 °F 39% 30.02 in 10.0 mi SW 12.7 mph - N/A   Clear
11:10 PM 39.2 °F 31.6 °F 15.8 °F 39% 30.02 in 10.0 mi SW 12.7 mph - N/A   Clear
11:30 PM 39.2 °F 30.8 °F 15.8 °F 39% 30.02 in 10.0 mi SW 15.0 mph - N/A   Clear
11:50 PM 37.4 °F 30.3 °F 15.8 °F 41% 30.02 in 10.0 mi WSW 10.4 mph - N/A   Clear